GW0604 Weather Reports


Display with metric or nautical units.
time (UTC)temp
F
wind
direction
speed
MPH
gust
MPH
rain 1hr
in
rain 24hr
in
rain mn
in
humidity
%
barometer
mb
20260504034555 59 302 0.0 1.0 0.00 0.00 0.00 62 1004.8
20260504033058 60 0 0.0 1.0 0.00 0.00 0.00 61 1004.9
20260504031558 60 0 0.0 2.0 0.00 0.00 0.00 60 1005.1
20260504030058 60 302 0.0 2.0 0.00 0.00 0.00 59 1005.1
20260504024615 61 0 0.0 1.0 0.00 0.00 0.00 59 1005.1
20260504023055 61 0 0.0 1.0 0.00 0.00 0.00 58 1005.2
20260504021557 61 0 0.0 0.0 0.00 0.00 0.00 57 1005.1
20260504020055 62 0 0.0 0.0 0.00 0.00 0.00 55 1005.1
20260504014605 62 0 0.0 0.0 0.00 0.00 0.00 53 1004.9
20260504013101 63 0 0.0 0.0 0.00 0.00 0.00 51 1004.6
20260504011604 64 0 0.0 0.0 0.00 0.00 0.00 50 1004.6
20260504010109 65 0 0.0 1.0 0.00 0.00 0.00 48 1004.5
20260504004601 66 0 0.0 3.0 0.00 0.00 0.00 47 1004.5
20260504003059 67 0 1.0 3.0 0.00 0.00 0.00 45 1004.6
20260504001608 67 0 0.0 3.0 0.00 0.00 0.00 44 1004.5
20260504000139 68 0 0.0 10.0 0.00 0.00 0.00 45 1004.4
20260503234604 68 308 1.0 11.0 0.00 0.00 0.00 44 1004.4
20260503233108 68 305 1.0 11.0 0.00 0.00 0.00 43 1004.5
20260503231558 68 225 2.0 10.0 0.00 0.00 0.00 43 1004.6
20260503224605 68 254 2.0 11.0 0.00 0.00 0.00 42 1004.8
20260503223057 68 301 2.0 14.0 0.00 0.00 0.00 42 1005.0
20260503221559 68 318 3.0 11.0 0.00 0.00 0.00 41 1005.0
20260503220057 68 315 3.0 8.0 0.00 0.00 0.00 41 1005.2
20260503214555 69 277 2.0 13.0 0.00 0.00 0.00 40 1005.5
20260503213055 68 271 5.0 19.0 0.00 0.00 0.00 40 1005.6
20260503211617 66 0 3.0 15.0 0.00 0.00 0.00 41 1005.8
20260503210056 68 301 3.0 15.0 0.00 0.00 0.00 39 1006.0
20260503204555 67 273 5.0 14.0 0.00 0.00 0.00 42 1006.3
20260503203110 66 241 4.0 12.0 0.00 0.00 0.00 44 1006.8
20260503201557 66 304 4.0 11.0 0.00 0.00 0.00 46 1007.1
20260503200058 64 266 4.0 13.0 0.00 0.00 0.00 47 1007.4
20260503194558 63 298 5.0 16.0 0.00 0.00 0.00 48 1007.4
20260503193057 63 238 3.0 15.0 0.00 0.00 0.00 49 1007.6
20260503191555 62 298 4.0 17.0 0.00 0.00 0.00 48 1007.7
20260503190059 62 302 3.0 18.0 0.00 0.00 0.00 51 1007.7
20260503184557 60 227 3.0 12.0 0.00 0.00 0.00 52 1008.0
20260503183058 59 307 2.0 17.0 0.00 0.00 0.00 53 1008.2
20260503181604 59 248 3.0 14.0 0.00 0.00 0.00 54 1008.6
20260503180111 60 240 4.0 19.0 0.00 0.00 0.00 54 1009.3
20260503174555 59 223 2.0 16.0 0.00 0.00 0.00 56 1009.7
20260503173101 57 327 4.0 14.0 0.00 0.00 0.00 59 1010.2
20260503171559 54 236 3.0 15.0 0.00 0.00 0.00 66 1010.5
20260503100103 47 0 0.0 4.0 0.00 0.00 0.00 57 1012.5
20260503081559 47 300 0.0 5.0 0.00 0.00 0.00 54 1013.2
20260503080336 46 0 0.0 3.0 0.00 0.00 0.00 55 1013.3
20260503071603 46 0 0.0 2.0 0.00 0.00 0.00 56 1013.4
20260503070103 46 291 0.0 2.0 0.00 0.00 0.00 56 1013.5
20260503060108 46 202 0.0 2.0 0.00 0.00 0.00 56 1014.1
20260503054601 46 0 0.0 1.0 0.00 0.00 0.00 58 1014.1
20260503053055 46 0 0.0 1.0 0.00 0.00 0.00 58 1014.3
20260503051555 46 0 0.0 1.0 0.00 0.00 0.00 59 1014.5
20260503050055 46 0 0.0 1.0 0.00 0.00 0.00 59 1014.5
20260503044609 46 0 0.0 1.0 0.00 0.00 0.00 59 1014.6
20260503043117 46 0 0.0 1.0 0.00 0.00 0.00 61 1014.6
20260503041601 46 0 0.0 1.0 0.00 0.00 0.00 61 1014.7
20260503040106 46 0 0.0 0.0 0.00 0.00 0.00 61 1014.8